Wind_Speed
2 2 1 2 3 2 4 6 7 9 9 8 20 22 20 11 12 6 26 26 27 27 25 22 18 16 14 12 10 9 10 11 11 11 10 9 9 10 10 9 8 10 12 12 13 12 12 12 13
2 2 2 5 2 4 6 8 10 8 11 15 21 17 12 14 4 15 26 27 26 24 21 19 16 13 10 10 11 12 11 11 10 9 9 9 10 10 11 9 8 8 10 12 13 13 13 12 13
1 3 3 5 3 8 3 7 14 12 15 22 19 19 10 13 5 21 23 25 25 22 19 16 14 12 12 13 13 11 10 10 10 9 9 8 8 11 11 11 10 8 8 11 14 14 14 12 13
7 7 4 6 7 11 8 14 18 18 22 18 14 13 12 14 16 21 23 22 22 20 18 17 14 14 14 12 10 9 10 11 10 10 12 11 14 14 13 12 11 11 10 12 15 16 16 14 13
8 5 7 10 1 6 11 13 17 19 19 15 13 7 8 14 23 21 21 21 20 19 19 18 16 14 13 12 11 11 11 11 11 11 13 15 17 17 15 14 12 12 14 15 16 16 16 15 12
5 7 7 16 9 8 7 18 24 20 14 13 11 7 14 25 26 22 20 20 20 18 20 18 15 14 13 12 11 11 11 12 12 13 13 15 15 16 15 14 13 13 15 17 17 17 15 14 12
7 5 7 12 11 4 20 22 13 16 10 9 6 8 31 33 26 22 20 20 20 20 18 16 14 14 13 13 12 12 11 12 13 13 12 14 15 16 16 15 15 15 16 16 16 16 15 15 13
5 4 6 10 9 6 21 20 14 14 12 5 6 21 28 33 29 24 22 21 21 19 17 15 13 13 13 12 11 11 12 11 12 11 12 13 15 16 16 15 16 17 17 17 16 17 17 15 14
8 2 6 9 11 6 17 12 19 15 12 10 11 13 25 31 29 25 23 24 22 20 18 15 14 13 12 12 11 12 12 11 11 11 12 13 13 15 15 15 16 15 16 18 18 19 18 18 17
8 5 5 11 10 9 6 17 8 14 17 14 5 20 27 30 28 24 22 23 23 20 18 16 14 13 12 11 11 12 11 10 9 9 8 13 13 12 12 13 15 15 14 14 16 16 18 17 14
8 7 3 5 11 11 3 10 4 9 12 11 2 3 27 31 27 23 21 19 20 19 18 16 14 13 12 11 12 12 11 10 13 11 7 12 11 11 12 11 12 11 9 11 14 15 17 17 15
10 6 1 4 4 5 8 6 1 9 8 8 9 8 12 26 27 24 24 24 21 20 18 16 15 14 14 13 13 13 12 13 12 10 12 13 10 8 11 11 11 9 9 11 12 16 18 15 13
11 4 3 7 10 6 6 9 6 10 8 10 13 11 13 26 26 23 22 19 18 19 18 16 15 14 14 14 13 14 13 13 10 8 10 11 7 4 7 9 9 12 10 8 13 13 14 15 13
8 4 7 11 13 10 8 2 5 9 11 18 11 10 12 23 26 27 27 19 16 17 17 16 16 14 13 15 14 13 11 11 9 9 8 7 8 8 5 6 9 12 12 12 12 8 12 11 10
4 6 6 7 8 12 6 0 2 6 17 15 14 11 17 21 25 25 24 17 12 13 17 15 15 14 12 13 15 14 13 9 9 8 8 7 8 5 7 9 8 13 13 11 12 9 8 10 6
3 5 3 3 3 10 10 6 8 7 10 17 16 15 19 20 24 22 19 16 11 12 17 18 15 14 12 12 13 15 15 12 9 11 11 6 6 5 7 6 8 13 16 15 14 12 9 9 9
4 7 5 1 4 5 7 8 7 8 10 16 15 15 24 26 24 22 19 16 11 9 18 24 17 13 12 10 17 18 13 13 8 9 11 9 5 6 4 7 9 15 16 14 13 14 9 11 16
6 9 5 5 9 7 13 15 14 11 11 11 14 16 22 25 21 24 19 16 10 7 11 21 20 16 14 12 16 16 15 12 10 9 8 8 7 8 9 10 9 11 16 13 14 15 12 12 14
14 12 10 6 2 11 8 13 21 20 12 16 19 21 22 24 22 19 15 17 14 9 10 17 20 18 16 13 15 16 14 12 9 9 8 6 6 5 7 8 7 13 10 12 13 15 12 12 12
13 14 10 5 3 15 11 15 17 27 19 14 19 19 21 25 25 24 21 18 17 12 12 15 18 19 16 14 13 12 13 13 12 9 8 7 7 6 5 7 6 11 8 13 10 14 12 14 16
13 14 9 7 12 10 9 6 23 30 23 19 22 19 23 25 24 25 26 18 18 16 17 15 18 19 19 16 16 16 16 15 14 11 9 7 7 7 6 5 5 8 8 12 13 11 13 18 23
13 12 7 7 8 6 3 1 10 36 28 26 29 25 28 29 29 24 26 25 20 15 19 16 16 18 20 21 19 18 15 14 12 10 10 8 8 7 6 5 5 3 7 8 16 15 15 15 14
11 3 8 11 9 4 6 5 3 26 34 29 29 29 31 32 28 27 29 26 21 19 17 17 16 18 21 22 21 19 18 16 14 13 15 11 9 7 6 5 5 5 8 9 10 14 14 12 17
10 11 11 9 7 2 6 4 2 6 11 26 31 34 33 35 28 28 30 25 23 26 23 20 18 18 22 23 22 21 20 18 17 15 16 12 10 10 9 8 7 6 6 9 8 10 12 12 14
9 9 1 2 3 5 4 2 4 7 10 12 10 27 33 31 29 29 30 34 28 26 22 22 21 21 22 24 22 22 20 19 18 18 17 13 12 10 9 8 8 8 7 6 7 9 11 12 14
10 9 6 5 4 4 6 8 3 6 7 10 15 19 32 32 29 31 27 29 29 24 22 21 21 21 23 24 24 23 23 22 19 19 19 15 14 12 11 10 11 10 9 8 8 9 10 12 14
8 6 5 3 4 3 1 2 8 8 9 10 10 17 19 20 33 30 23 23 29 24 24 20 21 20 23 23 25 24 25 24 22 20 18 17 18 16 15 14 12 12 10 11 11 10 10 11 13
7 4 4 5 4 3 3 6 14 11 11 15 15 11 21 20 26 39 29 19 22 22 21 20 19 20 20 24 26 25 24 25 24 23 21 20 20 19 18 17 15 13 12 11 11 11 11 12 13
4 5 4 5 2 5 3 5 11 17 23 23 16 16 15 22 24 34 33 27 24 20 19 18 19 20 22 27 28 27 26 26 27 26 24 22 22 21 19 17 16 15 14 13 12 12 12 13 14
5 13 9 3 2 4 3 6 13 17 20 27 24 18 19 24 24 28 39 31 38 34 24 19 20 21 21 25 29 30 28 27 27 28 26 25 24 23 20 19 19 17 16 15 13 13 13 13 13
Wind_Direction
213 202 92 44 288 290 209 151 156 179 163 132 154 151 140 143 138 149 153 156 152 153 151 151 149 146 146 145 137 129 120 108 106 104 100 99 104 114 116 120 129 137 140 142 154 158 142 131 115
187 139 58 327 328 153 209 161 154 167 146 155 150 167 152 156 102 156 157 154 152 152 150 151 148 148 147 149 141 130 123 115 104 102 101 104 112 115 110 105 116 130 142 145 151 156 145 130 122
91 122 353 17 331 203 194 142 149 158 165 162 168 159 163 168 140 156 154 152 151 152 151 149 152 150 151 139 134 133 127 119 108 96 92 94 118 118 109 101 107 120 138 147 152 150 145 137 130
96 69 14 351 334 197 142 154 166 175 170 170 165 169 184 168 151 159 155 153 153 153 151 149 153 151 140 136 141 133 124 116 109 95 84 78 121 119 114 104 105 109 117 141 149 148 150 145 135
73 77 50 15 160 174 182 148 189 171 174 187 184 200 208 169 157 160 161 154 154 155 151 147 151 148 137 140 138 134 128 120 110 99 92 91 109 118 115 109 106 107 107 124 142 146 151 145 134
81 73 40 25 128 179 228 167 168 176 176 181 198 229 168 156 164 159 162 154 153 158 147 149 153 145 141 140 139 135 131 123 114 106 102 101 110 113 108 107 106 109 115 118 131 139 141 134 134
108 87 35 46 32 280 153 179 169 179 195 179 218 203 154 155 162 161 159 152 154 153 149 150 154 146 148 148 144 136 132 127 117 108 108 112 109 112 112 112 104 97 104 119 125 127 127 126 131
142 95 34 10 343 309 204 187 178 175 178 198 159 174 164 156 162 163 158 155 155 155 151 155 153 147 147 150 143 137 133 122 121 115 108 116 114 114 113 112 103 100 98 103 110 118 120 125 127
174 131 38 3 331 6 164 144 171 175 158 144 151 189 166 160 165 165 163 161 159 159 155 155 156 149 150 147 138 136 129 129 118 116 108 107 100 117 118 114 110 108 105 105 112 121 123 127 126
167 158 79 46 20 101 115 155 136 152 152 154 168 166 172 170 171 168 168 164 160 162 155 157 159 153 147 143 139 131 131 125 124 116 106 108 105 98 104 110 115 115 111 113 116 119 126 129 134
169 118 80 71 28 52 71 165 170 138 158 145 99 153 174 178 174 172 170 165 161 163 161 160 162 154 147 144 142 134 129 112 132 96 101 96 109 112 109 111 121 116 120 127 131 116 120 113 119
176 162 184 298 303 59 47 252 62 168 173 206 217 213 180 187 178 176 176 170 171 164 168 168 166 160 154 151 153 142 131 124 129 107 111 100 98 122 120 122 125 112 125 120 118 108 119 112 110
180 177 284 319 302 290 47 1 215 209 176 203 207 194 191 185 180 178 175 167 168 170 174 174 172 168 165 154 160 155 142 135 128 114 128 106 94 130 130 127 124 125 131 125 129 108 110 104 107
171 262 306 300 297 253 259 352 186 166 157 196 203 202 197 185 180 177 178 173 171 178 183 181 177 172 177 162 164 168 147 136 136 131 125 113 88 97 117 133 158 139 154 135 145 119 113 132 113
227 255 288 286 273 230 219 5 218 183 160 204 198 207 208 192 185 184 176 171 185 182 190 191 182 179 193 181 169 170 163 162 154 143 124 111 103 113 104 128 141 168 149 155 160 135 134 150 124
240 248 246 250 207 209 216 249 90 207 195 191 195 195 197 195 184 181 175 176 172 192 198 200 186 180 191 189 176 177 170 164 154 138 121 118 142 107 136 136 166 161 159 156 150 135 137 153 160
216 177 181 92 162 192 221 256 200 205 163 190 199 186 194 196 189 184 183 184 180 190 201 212 200 185 190 181 179 178 177 164 164 136 124 127 127 120 156 132 156 162 146 144 141 141 136 128 127
202 210 198 85 149 229 273 266 217 257 180 187 198 184 190 197 206 195 189 186 185 195 191 206 200 193 183 180 172 171 186 179 171 148 135 129 128 123 136 113 138 160 152 137 145 147 139 126 125
220 222 239 189 246 285 286 288 238 240 220 185 199 195 194 204 207 205 201 194 199 206 223 208 210 203 191 187 174 182 180 187 171 167 152 153 129 118 117 148 136 179 175 169 173 173 160 139 154
230 233 232 235 136 327 303 285 232 231 241 205 194 198 202 200 204 210 202 202 204 211 231 215 213 213 206 198 187 186 187 187 193 190 169 175 160 151 135 132 150 160 174 168 164 153 152 150 151
220 232 217 289 340 332 318 270 206 217 220 212 204 208 210 209 209 211 211 217 199 210 235 221 214 216 212 212 206 194 193 194 201 187 176 186 186 173 153 139 125 137 150 178 170 166 152 145 132
242 212 251 288 310 331 183 213 228 207 213 215 214 211 210 211 218 221 227 221 213 214 226 231 215 220 217 214 217 204 205 199 206 192 191 195 198 194 166 150 155 152 165 151 172 175 174 152 151
228 262 282 278 275 312 249 245 220 219 220 223 223 223 210 211 224 229 233 231 236 227 226 217 216 218 222 222 217 215 206 203 210 198 198 200 197 196 178 186 178 163 182 148 148 172 178 170 161
251 266 278 254 251 188 156 51 317 238 252 243 237 232 223 218 228 235 230 229 229 232 228 221 217 217 222 225 220 218 211 207 204 207 197 193 190 191 187 182 192 186 180 185 163 162 174 174 166
226 229 246 163 159 185 104 130 49 301 313 299 265 251 246 233 233 238 230 229 225 223 223 220 224 219 219 228 223 216 216 215 207 213 208 201 191 187 188 186 188 189 186 185 178 175 163 171 176
199 201 186 179 170 169 128 192 165 348 10 301 264 257 251 248 234 230 233 231 233 230 218 216 216 218 220 225 229 220 216 216 213 212 210 204 192 186 193 198 195 196 183 191 187 179 177 174 178
188 180 203 195 126 84 138 218 262 230 269 287 317 255 248 243 236 236 246 240 229 230 225 220 216 215 219 224 229 228 220 217 215 213 215 213 196 194 194 201 204 204 199 197 199 191 186 190 187
106 179 180 179 128 154 254 68 6 347 321 299 293 280 247 237 236 229 238 238 224 227 227 227 222 223 223 226 227 230 227 224 219 216 213 210 203 204 200 203 204 209 210 212 205 203 194 196 199
17 79 126 137 116 153 164 65 0 359 355 341 314 263 281 231 233 235 236 238 221 223 224 221 217 218 219 220 225 227 229 226 223 221 214 213 209 210 204 204 209 212 215 215 216 211 206 206 205
104 68 53 100 24 68 112 103 6 346 350 329 323 298 282 229 226 232 230 233 224 224 225 228 219 216 216 219 224 226 229 228 229 226 220 214 214 216 212 206 209 213 212 210 211 213 213 212 206
Height
3152 3152 3152 3151 3152 3150 3148 3150 3150 3151 3154 3156 3158 3160 3163 3164 3166 3171 3170 3174 3176 3179 3181 3184 3186 3187 3189 3191 3191 3191 3191 3192 3192 3192 3191 3191 3192 3193 3194 3195 3195 3196 3197 3198 3199 3200 3202 3203 3202
3152 3152 3152 3150 3149 3150 3148 3150 3151 3153 3155 3157 3159 3161 3163 3166 3167 3168 3171 3175 3179 3182 3185 3187 3188 3190 3192 3193 3194 3193 3193 3194 3194 3194 3194 3194 3194 3195 3196 3196 3196 3196 3197 3199 3200 3201 3203 3204 3205
3152 3153 3152 3149 3151 3152 3152 3153 3153 3156 3157 3157 3159 3162 3165 3168 3169 3172 3176 3178 3181 3185 3187 3189 3190 3192 3193 3195 3195 3195 3196 3196 3196 3196 3196 3195 3195 3196 3197 3197 3197 3197 3197 3198 3199 3202 3203 3205 3207
3153 3154 3154 3151 3151 3153 3152 3153 3155 3157 3158 3160 3162 3165 3167 3171 3172 3175 3178 3180 3183 3186 3189 3190 3192 3194 3195 3196 3196 3197 3197 3197 3198 3197 3196 3195 3195 3196 3197 3198 3198 3198 3198 3199 3201 3203 3205 3206 3209
3154 3155 3155 3152 3150 3153 3152 3154 3158 3158 3160 3160 3163 3164 3166 3170 3173 3177 3180 3183 3186 3188 3190 3192 3194 3196 3197 3198 3198 3199 3199 3199 3199 3199 3198 3198 3197 3198 3198 3199 3199 3200 3200 3201 3202 3204 3206 3209 3211
3155 3155 3154 3151 3149 3152 3147 3154 3156 3160 3161 3162 3164 3164 3165 3171 3175 3179 3182 3185 3187 3190 3192 3194 3196 3197 3198 3199 3200 3201 3201 3201 3201 3201 3201 3200 3200 3200 3201 3200 3201 3201 3202 3202 3204 3206 3208 3211 3213
3155 3154 3154 3153 3153 3148 3149 3152 3157 3162 3164 3165 3163 3163 3166 3170 3177 3180 3184 3187 3189 3192 3195 3196 3198 3200 3201 3200 3202 3203 3203 3203 3203 3203 3203 3203 3203 3204 3203 3203 3203 3204 3205 3206 3207 3209 3211 3213 3215
3154 3154 3153 3152 3153 3154 3154 3153 3155 3161 3163 3164 3164 3166 3167 3170 3176 3180 3184 3187 3191 3193 3196 3198 3200 3202 3203 3202 3205 3205 3206 3206 3206 3206 3205 3205 3205 3206 3206 3206 3207 3207 3208 3209 3210 3211 3213 3215 3217
3154 3155 3154 3154 3152 3150 3151 3152 3155 3160 3163 3165 3167 3170 3171 3172 3175 3180 3184 3187 3191 3194 3197 3199 3201 3203 3204 3205 3206 3207 3208 3208 3209 3209 3209 3208 3209 3208 3208 3209 3210 3211 3211 3212 3213 3214 3215 3217 3218
3154 3155 3155 3155 3154 3152 3154 3153 3157 3159 3162 3164 3166 3168 3172 3174 3177 3181 3185 3189 3192 3196 3198 3200 3202 3205 3206 3206 3208 3209 3210 3210 3210 3211 3211 3212 3212 3212 3211 3212 3213 3213 3214 3214 3215 3216 3217 3218 3220
3154 3155 3156 3157 3157 3156 3155 3159 3159 3154 3161 3166 3167 3169 3173 3174 3178 3183 3188 3193 3196 3197 3199 3202 3203 3206 3207 3208 3210 3211 3211 3211 3212 3214 3213 3215 3214 3214 3214 3215 3216 3217 3217 3217 3218 3219 3220 3220 3221
3153 3154 3155 3157 3158 3158 3158 3158 3160 3161 3164 3166 3168 3170 3174 3176 3180 3184 3188 3192 3195 3198 3200 3203 3205 3207 3209 3209 3211 3213 3213 3213 3215 3216 3217 3217 3216 3215 3216 3216 3218 3219 3220 3220 3221 3222 3223 3224 3224
3152 3154 3155 3157 3157 3160 3160 3160 3158 3162 3166 3166 3167 3169 3173 3178 3182 3186 3190 3193 3196 3199 3201 3204 3207 3208 3210 3211 3212 3214 3215 3215 3216 3217 3218 3219 3218 3217 3217 3219 3220 3221 3222 3222 3223 3224 3225 3225 3226
3153 3153 3154 3155 3156 3159 3159 3160 3160 3162 3164 3162 3168 3170 3171 3177 3182 3186 3188 3192 3196 3199 3202 3205 3208 3209 3212 3212 3214 3215 3216 3217 3217 3219 3219 3219 3219 3219 3219 3218 3220 3222 3223 3224 3225 3225 3226 3227 3228
3149 3151 3151 3152 3154 3156 3160 3162 3161 3162 3164 3165 3167 3169 3171 3176 3182 3186 3189 3193 3197 3200 3202 3205 3208 3210 3213 3214 3215 3217 3218 3219 3219 3220 3220 3220 3221 3221 3221 3220 3221 3223 3224 3225 3226 3227 3228 3230 3230
3148 3150 3151 3152 3154 3156 3161 3160 3161 3160 3163 3163 3165 3167 3170 3174 3182 3186 3189 3194 3197 3200 3203 3205 3208 3211 3213 3214 3216 3218 3219 3220 3221 3222 3221 3222 3223 3223 3223 3223 3224 3224 3225 3226 3227 3228 3230 3231 3231
3146 3149 3151 3152 3154 3157 3159 3158 3161 3160 3161 3162 3165 3165 3168 3173 3180 3184 3189 3193 3198 3201 3203 3206 3209 3212 3213 3214 3215 3218 3220 3221 3222 3222 3223 3224 3225 3225 3224 3224 3224 3226 3226 3227 3228 3229 3231 3231 3232
3145 3147 3150 3152 3154 3158 3159 3158 3159 3158 3160 3162 3163 3164 3167 3170 3175 3181 3186 3191 3196 3200 3204 3207 3208 3211 3212 3214 3216 3218 3221 3221 3222 3222 3223 3225 3226 3228 3228 3226 3226 3227 3228 3229 3229 3230 3232 3232 3232
3143 3145 3147 3152 3155 3155 3154 3152 3156 3156 3159 3160 3162 3163 3166 3169 3175 3180 3184 3189 3194 3198 3202 3206 3207 3209 3211 3215 3217 3220 3221 3223 3223 3224 3225 3226 3226 3228 3229 3229 3230 3229 3229 3230 3231 3233 3234 3234 3235
3141 3144 3147 3149 3150 3151 3149 3148 3151 3153 3157 3159 3160 3162 3165 3169 3173 3177 3181 3186 3189 3195 3201 3204 3206 3208 3210 3214 3217 3220 3221 3223 3224 3225 3226 3227 3228 3229 3230 3230 3231 3231 3231 3231 3233 3234 3235 3236 3237
3139 3141 3145 3148 3148 3147 3146 3144 3146 3151 3155 3156 3159 3164 3166 3168 3170 3174 3177 3182 3186 3191 3198 3201 3204 3207 3210 3212 3215 3217 3219 3221 3224 3225 3226 3227 3229 3229 3230 3231 3231 3232 3233 3233 3233 3235 3236 3238 3239
3137 3140 3143 3146 3148 3148 3147 3148 3145 3149 3153 3154 3156 3159 3162 3166 3169 3173 3174 3179 3183 3189 3195 3199 3202 3205 3208 3211 3214 3216 3219 3222 3226 3226 3227 3229 3230 3230 3230 3231 3233 3233 3234 3234 3234 3236 3238 3240 3242
3135 3139 3142 3143 3146 3147 3148 3148 3146 3149 3151 3151 3152 3155 3160 3164 3167 3170 3173 3177 3182 3187 3193 3197 3200 3203 3206 3209 3212 3216 3218 3221 3224 3225 3227 3229 3230 3230 3230 3232 3233 3234 3235 3236 3236 3237 3239 3241 3242
3134 3136 3138 3140 3143 3145 3145 3147 3146 3146 3147 3148 3152 3154 3157 3161 3164 3168 3174 3176 3180 3185 3190 3195 3197 3202 3205 3207 3210 3214 3217 3219 3221 3223 3226 3229 3230 3231 3231 3233 3234 3235 3236 3237 3237 3238 3240 3241 3243
3131 3133 3135 3139 3142 3144 3143 3145 3145 3144 3146 3147 3149 3151 3153 3158 3161 3163 3166 3170 3176 3180 3186 3190 3195 3198 3202 3205 3208 3212 3216 3218 3220 3223 3225 3228 3230 3231 3232 3233 3235 3236 3237 3237 3238 3239 3240 3242 3244
3128 3130 3131 3137 3140 3140 3141 3140 3141 3142 3142 3142 3143 3145 3150 3154 3158 3159 3161 3166 3172 3177 3181 3186 3190 3195 3199 3203 3206 3210 3213 3216 3219 3221 3224 3227 3229 3230 3231 3233 3235 3236 3237 3237 3239 3240 3241 3242 3244
3126 3127 3130 3131 3134 3136 3139 3141 3139 3140 3141 3141 3139 3140 3142 3144 3150 3154 3158 3160 3166 3172 3177 3182 3187 3191 3196 3200 3204 3207 3210 3213 3217 3220 3222 3225 3227 3229 3231 3233 3234 3236 3236 3238 3238 3239 3241 3242 3244
3122 3126 3128 3129 3135 3139 3135 3138 3139 3137 3137 3135 3135 3136 3137 3140 3144 3149 3154 3157 3162 3168 3174 3179 3183 3187 3193 3198 3201 3205 3208 3211 3215 3217 3220 3223 3225 3227 3229 3231 3233 3234 3235 3237 3238 3239 3240 3242 3243
3123 3123 3125 3127 3130 3132 3137 3142 3140 3137 3134 3132 3130 3130 3131 3135 3139 3145 3152 3156 3159 3165 3170 3175 3178 3181 3186 3192 3198 3201 3204 3207 3210 3214 3218 3221 3223 3225 3227 3229 3231 3233 3234 3235 3236 3237 3239 3240 3242
3124 3125 3126 3126 3130 3130 3132 3142 3139 3136 3133 3133 3129 3127 3128 3127 3132 3138 3146 3151 3152 3159 3166 3171 3174 3177 3182 3188 3192 3196 3200 3203 3206 3210 3214 3217 3220 3222 3225 3227 3228 3231 3233 3234 3235 3236 3237 3238 3240